Terminal Aerodrome Forecast
Issued by NWS Greer, SC

Home | Current Version | Previous Version | Text Only | Print | Product List | Glossary On
Versions: 1 2 3 4 5 6 7 8 9 10 11 12 13 14 15 16 17
000
FTUS42 KGSP 280539
TAFGSP
TAF
KGSP 280539Z 2806/2906 33006KT P6SM SKC
     FM281700 21003KT P6SM FEW200=

USA.gov is the U.S. government's official web portal to all federal, state and local government web resources and services.